This demonstration page uses our WeatherBlox Daily Observations layout. Learn more.

Left ArrowRight Arrow

31.84235, -102.49876

Hourly Observations for May 24, 2017

Temp ( °F °C ) Dew Point ( °F °C ) Humidity (%) Winds ( mph kmh ) Pressure ( in mb ) Visibility ( mi km ) Precip ( " mm )
12:53 am 00:53 Clear 56 13.3 43 6.1 62 62 W 3 6 29.98 1015 10 16 0.00 0.00
1:53 am 01:53 Clear 55 12.8 42 5.6 62 62 W 3 6 29.97 1015 10 16 0.00 0.00
2:53 am 02:53 Clear 54 12.2 42 5.6 64 64 W 5 7 29.95 1014 10 16 0.00 0.00
3:53 am 03:53 Clear 52 11.1 41 5 66 66 WSW 5 7 29.95 1014 10 16 0.00 0.00
4:53 am 04:53 Clear 51 10.6 42 5.6 71 71 W 5 7 29.93 1014 10 16 0.00 0.00
5:53 am 05:53 Clear 51 10.6 42 5.6 71 71 W 6 9 29.93 1013 10 16 0.00 0.00
6:53 am 06:53 Sunny 51 10.6 42 5.6 71 71 W 5 7 29.93 1013 10 16 0.00 0.00
7:53 am 07:53 Sunny 55 12.8 43 6.1 64 64 W 6 9 29.92 1013 10 16 0.00 0.00
8:53 am 08:53 Sunny 63 17.2 43 6.1 48 48 WSW 8 13 29.92 1013 10 16 0.00 0.00
9:53 am 09:53 Sunny 68 20 40 4.4 36 36 WSW 14 22 29.90 1013 10 16 0.00 0.00
10:53 am 10:53 Sunny 71 21.7 38 3.3 30 30 WSW 12 19 29.89 1012 10 16 0.00 0.00
11:53 am 11:53 Sunny 74 23.3 37 2.8 26 26 SSW 14 22 29.86 1011 10 16 0.00 0.00
12:53 pm 12:53 Sunny 76 24.4 35 1.7 23 23 SW 10 17 29.83 1010 10 16 0.00 0.00
1:53 pm 13:53 Sunny 79 26.1 33 0.6 19 19 SW 17 28 29.79 1009 10 16 0.00 0.00
2:53 pm 14:53 Sunny 80 26.7 33 0.6 18 18 WSW 16 26 29.76 1008 10 16 0.00 0.00
3:53 pm 15:53 Sunny 83 28.3 32 0 16 16 SSW 12 19 29.72 1007 10 16 0.00 0.00
4:53 pm 16:53 Sunny 85 29.4 30 -1.1 14 14 SW 15 24 29.69 1005 10 16 0.00 0.00
5:53 pm 17:53 Sunny 88 31.1 29 -1.7 12 12 WSW 14 22 29.65 1004 10 16 0.00 0.00
6:53 pm 18:53 Sunny 88 31.1 26 -3.3 10 10 WSW 9 15 29.62 1003 10 16 0.00 0.00
7:53 pm 19:53 Sunny 87 30.6 29 -1.7 12 12 WSW 6 9 29.60 1002 10 16 0.00 0.00
8:53 pm 20:53 Clear 81 27.2 36 2.2 20 20 SSE 6 9 29.60 1002 10 16 0.00 0.00
9:53 pm 21:53 Clear 79 26.1 37 2.8 22 22 S 14 22 29.60 1002 10 16 0.00 0.00
10:53 pm 22:53 Clear 76 24.4 42 5.6 30 30 S 16 26 29.60 1003 10 16 0.00 0.00
11:53 pm 23:53 Clear 73 22.8 43 6.1 34 34 S 18 30 29.61 1003 10 16 0.00 0.00

Powered by AerisWeather